STARLINK-33857, 64195

Orbit data source: Space-Track

STARLINK-33857, 64195 is a payload satellite owned by SpaceX/Seattle (US) in LEO that was launched on Wed, 28 May 2025 UTC via an FALCON 9 launch vehicle from the Air Force Eastern Test Range (AFETR). Payload-class satellites include a variety of spacecraft equipped with specific instruments for various scientific and technological missions. These include communications satellites like Starlink; space stations such as the ISS; scientific satellites like the Hubble; Earth observation satellites from companies like Planet Labs, Umbra, and HawkEye 360; GPS; miniature CubeSats for education and research; and military/defense satellites.

Loading next visibility...
Identifier
64195, 2025-113AB
Orbit
LEO
Country
Flag of USUS
Related business
Manufacturer
SpaceX/Seattle
Mission
Operational Commercial Communications
Bus & Motor
STARLINK V2MO, Unknown motor
Mass
575 kg wet, ~530 kg dry
Launch date (UTC)
2025-05-28 (1 year ago)
Launch vehicle
FALCON 9
Launch site
Air Force Eastern Test Range (AFETR)
Object type
Payload
Rocket body
Debris
Shape & HBR
Box + 2 Pan, 17.7 m
Radar Cross Section
36.964 m², Large (>1 m²)

Expand to show TLE details & history
Last TLE update: 23 hours ago

TLE from 23 hours ago
0 STARLINK-33857
1 64195U 25113AB  26170.88103937  .00015402  00000-0  53075-3 0  9997
2 64195  53.1601 336.2780 0001074  84.1443 275.9681 15.30219811 60676
Epoch: 2026-06-19T21:08Z
TLE epoch observation values (Epoch: 2026-06-19T21:08:41.801Z)
Latitude
0.00004°
Longitude
111.0002°
Altitude
475.979 km
Speed
7.629 km/s
True Right ascension
22h 25m 06s
True Declination
0° 00' 00"
Sunlit
Object was in daylight at epoch
Visualization orbit readout
Latitude
Unknown
Longitude
Unknown
Altitude
Unknown
Speed
Unknown
Apparent Right ascension
Unknown
Apparent Declination
Unknown
Sunlit
N/A
Visualization observer readout
Local Sidereal Time
07:17:22
Azimuth
Unknown
Elevation
Unknown
Doppler factor
Unknown
Orbital elements
Apogee altitude
476.148 km
Perigee altitude
474.676 km
Semi-major axis
6,853.549 km
Eccentricity
0.00011
Inclination
53.1601°
RAAN
336.278°
Arg. of periapsis
84.1443°
True anomaly
275.95586°
Mean anomaly
275.9681°
Eccentric anomaly
275.96198°
Mean motion
3.82534 °/min
Orbital period
94.11 mins
BSTAR
0.00053075
Loading maneuver chart data...
Computing Atmospheric mass density...
Loading historical data...
Loading historical data...
Loading historical data...
Loading historical data...
Loading historical data...
Loading historical data...
Loading historical data...

Documentation

Showing up to 5 results
|